World > North America > United States > Wyoming > Ralston

Ralston, WY Hourly Weather Conditions

Feedback E-mail the Weather

Quick WX

Ralston, WY Weather Maps

°F °C°F °C
Ralston Weather Map
UTC Time: 11/27/2022, 19:37
Your Time:

Ralston, WY Regional Weather

Expires:202211272000;;904201
ASUS45 KCYS 271910
RWRWY 

WYOMING REGIONAL WEATHER ROUNDUP
NATIONAL WEATHER SERVICE CHEYENNE WY
1200 PM MST SUN NOV 27 2022

NOTE:  "FAIR" INDICATES FEW OR NO CLOUDS BELOW 12,000 FEET
WITH NO SIGNIFICANT WEATHER AND/OR OBSTRUCTIONS TO VISIBILITY.


WYZ002>013-054>058-071-098>099-272000-
...NORTHERN WYOMING...
  
CITY           SKY/WX    TMP DP  RH WIND       PRES   REMARKS
JACKSON        FLURRIES  27  21  78 S20       29.92F WCI  13          
CODY           MOSUNNY   40  14  34 W22G37    29.71F WCI  30          
GREYBULL       MOSUNNY   29  28  96 S6        29.75F WCI  23          
WORLAND        CLOUDY    25  25 100 CALM      29.75F                  
SHERIDAN       MOSUNNY   31  27  85 CALM      29.67F                  
BUFFALO        MOSUNNY   54  23  30 N9        29.64F                  
GILLETTE       MOSUNNY   36  27  69 SW10      29.66F WCI  28          
HULETT           N/A    N/A N/A N/A MISG        N/A                   
NEWCASTLE      CLOUDY    34  27  75 SE12G17   29.75F WCI  25          

$$

SKY/WX - Weather  TMP - Temperature  DP - Dew Point  RH - Humidity
WIND - Wind Direction/Speed PRES - Barometric Pressure VSB - Visibility
WCI - Wind Chill Index E13G22 Wind - East Wind 13 mph/Gusts of 22 mph

Trending Headlines

Trending Entertainment Headlines

Ralston Radar Loop

Use the map search tool if you want to place a location marker on the radar map...

Ralston Quick Facts

National Two Day Weather Forecast


E-mail the Ralston Weather Forecast

Voice your opinion or tell us about page issues...